Location: Fleischmann Planetarium and Science Center
(39.5456°N, 119.8190°W)
Time: 04:15:29
(UTC-08:00)

Daily predictions for brighter satellites

Satellite Brightness Start Highest point End
(mag) Time Altitude Azimuth Time Altitude Azimuth Time Altitude Azimuth
SL-16 R/B 4.5 03:11:34 20° ENE 03:11:34 20° ENE 03:13:58 10° NE
Hubble Space Telescope 3.5 04:11:14 13° SSE 04:11:14 13° SSE 04:12:14 10° SE
Cosmos 2237 Rocket 4.2 04:21:27 16° N 04:21:27 16° N 04:22:44 10° N
CZ-4B DEB 4.2 04:14:04 10° NNE 04:19:12 76° NNE 04:19:12 76° NNE
CZ-3 Stage 3 4.4 04:18:59 36° SW 04:21:18 43° S 04:56:04 10° ESE
DELTA 2 R/B (1) 3.4 04:29:20 87° WSW 04:29:25 88° S 04:35:01 10° E
Lacrosse 5 rocket 1.8 04:35:25 63° NE 04:35:25 63° NE 04:39:23 10° NE
Okean-O 4.1 04:35:48 10° NNE 04:39:55 37° E 04:44:01 10° SSE
Meteor 2-3 Rocket 3.7 04:35:32 10° S 04:41:18 82° E 04:47:03 10° N
Atlas Centaur 2 3.8 04:41:25 30° SW 04:44:03 38° S 04:51:43 10° SE
Cosmos 1606 4.5 04:45:21 10° NNE 04:48:48 32° ENE 04:52:15 10° SE
IRS-P2 Rocket 4.4 04:46:15 10° NNE 04:51:31 83° WNW 04:56:43 10° SSW
Cosmos 1992 Rocket 3.8 04:46:34 10° SSW 04:51:48 83° WNW 04:57:04 10° NNE
SL-16 R/B 2.4 04:53:33 45° NW 04:53:33 45° NW 04:58:45 10° N
Cosmos 1603 4.0 04:52:40 10° S 04:58:14 68° ESE 05:03:53 10° NNE
Cosmos 1782 3.8 04:57:40 10° N 05:01:30 45° E 05:05:18 10° SSE
Cosmos 2123 Rocket 4.1 04:55:46 10° SSW 05:01:43 47° WNW 05:07:44 10° N
Cosmos 1725 Rocket 4.1 04:58:04 10° NNW 05:04:00 50° W 05:09:54 10° SSW
NOAA 6 4.1 05:02:10 10° NNE 05:07:19 79° ESE 05:12:25 10° S
Cosmos 1408 2.7 05:04:15 10° S 05:07:58 75° E 05:11:43 10° N
NOSS 3-1 (C) 4.2 05:01:27 15° NNW 05:08:05 74° NE 05:16:34 10° SE
CZ-2C R/B 3.7 05:04:36 10° S 05:09:01 55° W 05:10:49 32° NW
COSMO-SKYMED 1 2.8 05:05:04 10° SSE 05:09:23 72° ENE 05:13:43 10° N
Feng Yun 1-1 Rocket 4.4 05:04:47 10° NNE 05:10:45 87° ESE 05:16:40 10° SSW
CZ-2C R/B 3.8 05:06:20 10° NNE 05:11:15 42° E 05:16:02 10° S
Cosmos 2084 Rocket 3.1 05:11:07 52° WNW 05:11:52 69° WSW 05:15:43 10° SSE
Cosmos 1503 Rocket 4.3 05:12:28 34° WNW 05:14:04 44° WSW 05:18:55 10° S
USA 116 4.5 05:09:26 10° S 05:14:36 58° W 05:19:55 10° NNW
CZ-4B R/B 3.8 05:09:34 10° N 05:14:41 36° WNW 05:19:45 10° SW
PSLV R/B 2.9 05:16:11 69° W 05:16:31 88° NNW 05:19:43 10° ENE
Meteor 1-26 Rocket 4.5 05:13:02 18° NNW 05:16:47 43° W 05:22:04 10° SSW
Cosmos 405 Rocket 3.9 05:15:21 10° N 05:18:54 42° ENE 05:22:28 10° SSE
Cosmos 2369 Rocket 3.2 05:14:01 10° NNW 05:19:23 46° ENE 05:24:45 10° SE
Cosmos 2297 4.4 05:18:24 29° W 05:19:28 31° WSW 05:24:25 10° SSW
SL-8 R/B 3.6 05:17:35 24° WSW 05:20:30 90° NNW 05:25:19 10° ENE
MTI 3.8 05:19:00 10° S 05:22:07 52° W 05:22:38 46° WNW
PAYLOAD A 4.2 05:18:47 10° NNE 05:24:03 82° ESE 05:29:28 10° S
Cosmos 968 Rocket 3.5 05:20:12 10° NNW 05:25:30 89° WSW 05:30:46 10° SSE
Meteor 1-28 Rocket 3.9 05:24:20 10° SSW 05:27:41 30° W 05:27:44 30° W
USA 229 DEB 4.1 05:24:11 20° NW 05:29:00 47° WSW 05:35:57 10° S
USA 229 4.1 05:24:15 20° NW 05:29:06 48° WSW 05:36:04 10° S
IDEFIX/ARIANE 42P 2.6 05:24:04 10° NNE 05:29:17 85° ESE 05:34:28 10° SSW
NOSS 3-1 (A) 4.2 05:24:56 10° NNW 05:32:38 78° NE 05:41:08 10° SE
Cosmos 1862 3.9 05:29:47 10° S 05:33:40 58° E 05:37:35 10° NNE
Lacrosse 4 Rocket 4.2 05:31:43 10° SSE 05:35:09 23° ESE 05:38:32 10° NE
EO 1 Del DPAF 3.4 05:32:33 10° S 05:36:16 49° W 05:40:00 10° NNW
Okean 1-7 3.0 05:43:11 10° NNW 05:47:31 60° W 05:51:47 10° S
Hubble Space Telescope 3.0 05:47:35 10° SW 05:50:13 17° S 05:52:51 10° SE
Meteor 2-6 Rocket 4.4 05:49:47 10° NNW 05:55:33 60° W 06:01:23 10° S
Abrixas rocket 4.1 05:54:49 11° NW 05:56:55 19° N 05:59:19 10° ENE
Cosmos 1943 Rocket 2.8 05:51:45 10° NNW 05:57:22 59° ENE 06:02:56 10° SE
SKYMED 2 4.3 05:53:37 10° SSW 05:57:29 32° W 06:01:24 10° NNW
CZ-4 R/B 3.5 05:54:11 10° NE 05:57:41 30° E 06:01:13 10° SSE
Cosmos 1464 Rocket 4.0 05:52:06 10° NNW 05:58:21 71° W 06:04:39 10° S
Cosmos 1733 Rocket 3.7 05:56:02 10° S 06:00:16 59° E 06:04:33 10° NNE
Cosmos 1825 3.2 05:57:18 10° SW 06:00:26 25° WNW 06:03:35 10° NNW
USA 215 3.6 05:54:56 10° NE 06:01:29 72° SE 06:07:59 10° SW
Cosmos 1943 3.2 05:56:33 10° SSW 06:02:13 68° WNW 06:07:54 10° NNE
MSX 3.8 05:58:57 10° N 06:04:44 77° WNW 06:10:28 10° SSW
CSL-04 Rocket 4.3 06:00:28 10° NNE 06:05:56 64° ESE 06:11:25 10° S
Aureole 3 2.6 06:03:06 10° S 06:06:14 88° W 06:09:13 10° N
Tsikada Rocket 4.2 06:01:26 10° S 06:07:43 79° E 06:13:57 10° N
ATLAS 5 CENTAUR R/B 1.8 06:06:58 10° SW 06:11:28 59° NW 06:16:25 10° NNE
Lacrosse 5 rocket 3.2 06:11:16 10° WNW 06:14:35 19° NNW 06:17:55 10° NNE
Cosmos 2221 Rocket 4.3 06:10:36 10° NNW 06:14:36 33° W 06:18:38 10° SSW
DELTA 2 R/B (1) 4.1 06:10:19 10° W 06:15:42 50° SSW 06:21:04 10° SE
Okean-O 3.9 06:12:55 10° NNW 06:16:08 20° WNW 06:19:20 10° WSW
Genesis I 3.2 06:12:43 10° SSW 06:16:36 84° NW 06:20:33 10° NNE
SJ-12 4.1 06:13:45 10° N 06:17:45 49° WNW 06:21:42 10° SSW
Cosmos 2263 4.3 06:12:49 10° NNW 06:18:36 81° WSW 06:24:22 10° SSE
Cosmos 1484 Rocket 2.9 06:15:40 10° NNE 06:19:42 89° WNW 06:23:42 10° SSW
DEBRIS 3.7 06:19:28 10° W 06:21:14 16° SW 06:22:42 10° S
Meteor 1-27 Rocket 3.9 06:15:39 10° NNW 06:21:21 57° W 06:26:56 10° S
Cosmos 1441 Rocket 3.9 06:20:12 10° NNW 06:23:34 31° W 06:26:54 10° SSW
Cosmos 1606 4.4 06:22:07 10° NW 06:24:15 15° W 06:26:23 10° WSW
